Regional Weather Roundup
Issued by NWS

Home | Current Version | Previous Version | Graphics & Text | Print | Product List | Glossary On
Versions: 1 2 3 4 5 6 7 8 9 10 11 12 13 14 15 16 17 18 19 20 21 22 23 24 25 26 27 28 29 30 31 32 33 34 35 36 37 38 39 40 41 42 43 44 45 46 47 48 49 50
000
ASUS43 KDTX 280910
RWRMI
MICHIGAN HOURLY REGIONAL WEATHER ROUNDUP
NATIONAL WEATHER SERVICE DETROIT/PONTIAC MI
500 AM EDT SAT MAR 28 2015

NOTE: "FAIR" INDICATES FEW OR NO CLOUDS BELOW 12,000 FEET WITH NO
SIGNIFICANT WEATHER AND/OR OBSTRUCTION TO VISIBILITY.

MIZ047>049-052>055-059>063-066>070-074>076-081>083-281000-
SOUTHEAST LOWER MICHIGAN

CITY           SKY/WX    TMP DP  RH WIND       PRES   REMARKS
ADRIAN         CLEAR     15   6  67 N6        30.18S
ALMA           CLEAR     13   6  74 NW3       30.21S
ANN ARBOR      CLEAR     15   6  67 NW9       30.16S
BAD AXE        CLOUDY    20   6  54 NE5       30.16R
DETROIT CITY   CLOUDY    20   6  55 N8        30.16S
DETROIT        MOCLDY    17   6  62 NW9       30.18S
FLINT          CLOUDY    16   7  67 NW7       30.18R
GROSSE ILE     CLOUDY    19   7  58 NW8       30.16S
HILLSDALE      CLEAR     14   6  68 CALM      30.15S
HOWELL         CLEAR     13   7  78 NW5       30.17R

CITY           SKY/WX    TMP DP  RH WIND       PRES   REMARKS
JACKSON        CLEAR     12   6  77 W3        30.17S
LAMBERTVILLE   CLEAR     19   9  63 N5        30.18S
LANSING        CLEAR     14   7  73 NW6       30.20R
LAPEER         NOT AVBL
MASON          CLEAR     13   6  74 CALM      30.18S
MONROE         CLOUDY    18   9  68 N7        30.16S
MT. CLEMENS    FLURRIES  18   9  67 NW9       30.13S
PONTIAC        CLOUDY    14   6  70 NW12      30.14R
PORT HOPE        N/A     22   7  52 NE17G24   30.15S
PORT HURON     CLOUDY    18  14  86 N5        30.15S
TRI CITIES     CLEAR     16   5  62 N13       30.21R
YPSILANTI      CLEAR     17   6  62 N7        30.17S
$$
MIZ043>046-050>051-056>058-064>065-071>073-077>080-281000-
SOUTHWEST LOWER MICHIGAN

CITY           SKY/WX    TMP DP  RH WIND       PRES   REMARKS
BATTLE CREEK   CLEAR     15   5  64 N3        30.19R
BENTON HARBOR  CLEAR     15   4  61 NE3       30.22R
BIG RAPIDS     CLEAR     10   5  80 CALM      30.20R
COLDWATER      CLEAR     16   8  72 NE7       30.18R
HOLLAND        CLEAR     16   3  56 NE3       30.23S
GRAND RAPIDS     N/A     13   3  64 N5        30.21S
KALAMAZOO      CLEAR     16   4  59 NE6       30.20R
MARSHALL       CLEAR     13   7  76 CALM      30.18R
MUSKEGON       CLEAR     13   4  67 NE3       30.24R
$$
MIZ016>042-281000-
NORTHERN LOWER MICHIGAN

CITY           SKY/WX    TMP DP  RH WIND       PRES   REMARKS
ALPENA         CLEAR     11   7  84 CALM      30.21R
BEAVER ISLAND  CLEAR      4   2  89 CALM      30.25S
BELLAIRE       CLEAR      7   3  86 CALM      30.25S
CADILLAC       CLEAR      4  -1  79 CALM      30.17R
CHARLEVOIX       N/A      9   5  84 CALM      30.27S
FRANKFORT      SUNNY     11   3  70 CALM      30.25S
GAYLORD        CLEAR      5   0  79 CALM      30.17R
GRAYLING       CLEAR      4   0  83 CALM      30.19S
HARBOR SPRINGS CLEAR      6   2  81 CALM      30.24R
HOUGHTON LAKE  CLEAR      3   0  87 CALM      30.19S
MANISTEE       CLEAR      9   1  72 CALM      30.25R
OSCODA         CLEAR     12   8  83 NW8       30.18S
PELLSTON       CLEAR      4   0  83 NW3       30.24R
TRAVERSE CITY  CLEAR      8   4  83 CALM      30.24R
$$
MIZ007>008-015-281000-
EASTERN UPPER MICHIGAN

CITY           SKY/WX    TMP DP  RH WIND       PRES   REMARKS
KINROSS        CLEAR      1   1 100 W5        30.22S
MACKINAC ISLAN CLEAR     10   6  85 N6        30.22S
NEWBERRY       CLEAR     -5  -8  89 CALM      30.21F
S. S. MARIE    CLEAR      2  -4  76 W3        30.22R
$$
MIZ004>006-011>014-085-281000-
CENTRAL UPPER MICHIGAN

CITY           SKY/WX    TMP DP  RH WIND       PRES   REMARKS
MANISTIQUE     CLEAR      4   1  88 CALM      30.24R
ESCANABA       CLEAR      3  -2  78 NW5       30.26S
MENOMINEE      CLEAR     10   7  85 NW3       30.25S
SAWYER-GWINN   CLEAR     -4 -10  77 CALM      30.19F
$$
MIZ001>003-009>011-084-281000-
WESTERN UPPER MICHIGAN

CITY           SKY/WX    TMP DP  RH WIND       PRES   REMARKS
IRON MOUNTAIN  CLEAR      4  -3  73 CALM      30.20S
HOUGHTON       CLEAR      1  -2  87 CALM      30.18F
COPPER HARBOR    N/A      3  -2  79 SW7       30.21F
IRONWOOD       CLEAR      5   3  92 CALM      30.16S
$$

ABBREVIATIONS USED IN REMARKS
   TC - TEMPERATURE IN CELSIUS
  WCI - WIND CHILL INDEX
   HX - HEAT INDEX
  VSB - VISIBILITY




USA.gov is the U.S. government's official web portal to all federal, state and local government web resources and services.